Other Public Products
Issued by NWS Grand Forks, ND

Home | Current Version | Previous Version | Graphics & Text | Print | Product List | Glossary On
Versions: 1 2 3 4 5 6 7 8 9 10 11 12 13 14 15 16 17 18 19 20 21 22 23 24 25 26 27 28 29 30 31 32 33 34 35 36 37 38 39 40 41 42 43 44 45 46 47 48 49 50
244
FPUS83 KFGF 200531
OPUFGF
PRAIRIE TO PINES WEATHER ROUNDUP
NATIONAL WEATHER SERVICE EASTERN NORTH DAKOTA/GRAND FORKS ND
1100 PM CST SUN NOV 19 2017

 **SATELLITE DATA USED TO AUGMENT SKY COVER AT AUTOMATED STATIONS**
 *****  WEATHER ACROSS EASTERN NORTH DAKOTA  *****

CITY           SKY/WX    TMP DP  RH WIND       PRES   REMARKS
GRAND FORKS    FAIR      18  16  92 CALM      29.69F
GRND FORKS AFB FAIR      15  13  92 W3        29.68F
GRND FORKS NWS   N/A     21 N/A N/A S1          N/A
BUXTON           N/A     25  23  92 S5          N/A  WCI  19
DEVILS LAKE    FAIR      23  22  96 SE6       29.63F WCI  16
FARGO          FAIR      26  22  84 S5        29.70F WCI  20
WAHPETON ARPT  NOT AVBL
$$

 *****  WEATHER ACROSS CENTRAL AND WESTERN NORTH DAKOTA  *****

CITY           SKY/WX    TMP DP  RH WIND       PRES   REMARKS
JAMESTOWN      FAIR      28  22  78 SW8       29.65F WCI  20
BISMARCK       FAIR      29  22  75 E3        29.65F
MINOT          FAIR      36  23  59 SW10      29.53F
MINOT AFB      FAIR      34  23  65 SW10      29.52F
GARRISON         N/A     28  22  78 SW6       29.58F WCI  22
WILLISTON      FAIR      28  21  75 CALM      29.53F
DICKINSON      FAIR      35  22  58 SW13      29.57F
HETTINGER      FAIR      29  18  63 CALM      29.65F
$$

 *****  OTHER OBSERVATIONS NORTHEAST NORTH DAKOTA  *****

CITY           SKY/WX    TMP DP  RH WIND       PRES   REMARKS
WALHALLA       FAIR      16  16 100 SE9       29.63F WCI   4
LANGDON        NOT AVBL
CAVALIER       FAIR      12  10  92 CALM      29.65F FOG
GRAFTON        NOT AVBL
CANDO          FAIR      23  23 100 S10       29.60F WCI  12
FORT TOTTEN      N/A     26  23  87 S7        29.95S WCI  18
ROLLA          FAIR      25  23  93 S7        29.55F WCI  17
RUGBY          NOT AVBL
 ***** THE ABOVE OBSERVATIONS ARE NON NWS ARE NOT QUALITY
        CONTROLLED AND MAY MIS-REPORT RAIN FOR SNOW...
$$

 *****  OTHER OBSERVATIONS SOUTHEAST NORTH DAKOTA *****

CITY           SKY/WX    TMP DP  RH WIND       PRES   REMARKS
COOPERSTOWN    FAIR      25  23  93 S5        29.67S WCI  19
VALLEY CITY    NOT AVBL
OAKES            N/A     19  18  93 S9        29.68F WCI   9
GWINNER          N/A     23  19  86 SW9       29.69F WCI  13
SHEYENNE NWR     N/A     19  18  94 S3        29.95S
BUFFALO          N/A     28  21  78 S7          N/A  WCI  20
WYNDMERE       NOT AVBL
 ***** THE ABOVE OBSERVATIONS ARE NON NWS ARE NOT QUALITY
       CONTROLLED AND MAY MIS-REPORT RAIN FOR SNOW...
$$

  *****  WEATHER ACROSS NORTHERN MINNESOTA  *****

CITY           SKY/WX    TMP DP  RH WIND       PRES   REMARKS
FLAG ISLAND    FAIR      19  16  86 SE8       29.69F WCI   9
WARROAD        FAIR      18  12  79 S3        29.69F
ROSEAU         FAIR      19  14  79 SE3       29.69S
HALLOCK        FAIR      12  10  92 SE3       29.68F
THF RVR FALLS  FAIR      18  16  92 SE5       29.69F WCI  11
HALSTAD          N/A     22  19  89 S5          N/A  WCI  16
FOSSTON        FAIR      18  12  79 S3        29.69F
BAUDETTE       FAIR      16  11  80 SE7       29.70F WCI   6
WASKISH        FAIR      12  10  92 CALM      29.70F
CROOKSTON      FAIR      23  21  93 SE3       29.70F
$$
  *****  WEATHER ACROSS CENTRAL AND WEST MINNESOTA  *****

CITY           SKY/WX    TMP DP  RH WIND       PRES   REMARKS
BEMIDJI        FAIR      14  12  92 CALM      29.70R
PARK RAPIDS    FAIR      25  19  78 CALM      29.69F
WADENA         FAIR      19  18  93 CALM      29.70F
DETROIT LAKES  FAIR      27  23  86 CALM      29.71S
MOORHEAD       FAIR      23  19  86 SE3       29.71S
FERGUS FALLS   FAIR      27  21  80 S6        29.74F WCI  20
ELBOW LAKE     FAIR      28  23  84 S5        29.73S WCI  22
MORRIS MN      FAIR      28  23  80 CALM      29.73F
STAPLES        FAIR      25  21  86 S6        29.71F WCI  18
WHEATON        FAIR      25  19  80 S6        29.74F WCI  18
$$
  *****  WEATHER ELSEWHERE ACROSS MINNESOTA  *****

CITY           SKY/WX    TMP DP  RH WIND       PRES   REMARKS
DULUTH         FAIR      20  17  88 SE6       29.75S WCI  12
INTRNTL FALLS  FAIR      13   9  84 SE3       29.73F
ELY            FAIR      12  10  92 CALM      29.74F
CLOQUET        FAIR      19  14  79 CALM      29.74F
BRAINERD       FAIR      25  21  85 CALM      29.73S
HIBBING        FAIR       9   6  88 NW3       29.74F
ALEXANDRIA     FAIR      31  24  75 SW7       29.73F WCI  24
SAINT CLOUD    FAIR      24  22  91 CALM      29.75F
MINNEAPOLIS    MOCLDY    37  27  67 SW3       29.79F
$$

  *****  WEATHER ACROSS SOUTH DAKOTA  *****

CITY           SKY/WX    TMP DP  RH WIND       PRES   REMARKS
SIOUX FALLS    MOCLDY    41  26  55 S7        29.77F
BROOKINGS      FAIR      34  23  64 S12       29.74F
WATERTOWN      FAIR      30  23  75 S9        29.72F WCI  22
HURON          FAIR      29  23  78 SE6       29.72F WCI  23
SISSETON         N/A     33  23  66 CALM      29.71F
ABERDEEN       FAIR      19  17  92 S6        29.71F WCI  11
MITCHELL       FAIR      34  23  64 S8        29.75F
PIERRE         FAIR      33  23  66 SE9       29.68F
MOBRIDGE       FAIR      33  26  75 SE5       29.65F
RAPID CITY     FAIR      31  16  54 E3        29.71S
$$

  *****  SOME WEATHER IN NEARBY STATES *****

CITY           SKY/WX    TMP DP  RH WIND       PRES   REMARKS
GLASGOW MT     FAIR      41  20  43 S5        29.49F
GREAT FALLS MT FAIR      46  10  23 SW20G32   29.57F
CHEYENNE WY    FAIR      40   6  24 W21       29.95S
SCOTTSBLUFF NE FAIR      42   9  25 W13       29.86F
OMAHA NE       FAIR      37  26  64 S10       29.91F
DES MOINES IA  FAIR      38  27  64 S13       29.94F
DAVENPORT IA   FAIR      35  24  64 S10       30.05F
CHICAGO IL     FAIR      30  20  66 SW9       30.05F WCI  22
EAU CLAIRE WI  FAIR      26  21  81 SW6       29.82F WCI  19
LA CROSSE WI   FAIR      35  26  69 SE9       29.89F
$$

  *****  SOME NATIONAL WEATHER *****

CITY           SKY/WX    TMP DP  RH WIND       PRES   REMARKS
LA GUARDIA NY  CLOUDY    42  31  64 W15G23    29.79R
RALEIGH NC     FAIR      35  26  69 CALM      30.08R
ATLANTA GA     FAIR      39  30  70 NW7       30.16R
NEW ORLEANS LA FAIR      55  32  41 NE10G17   30.23R
OKLAHOMA CITY  FAIR      38  26  62 S8        30.15F
ALBUQUERQUE NM FAIR      39   3  22 CALM      30.19R
SALT LAKE CITY MOCLDY    34  31  88 SW3       30.10S
LOS ANGELES CA FAIR      63  55  75 CALM      30.00S
BOISE ID       FAIR      40  28  62 CALM      29.95F
SEATTLE WA     LGT RAIN  43  41  93 S3        29.63S
$$

*** WEATHER ACROSS MANITOBA...SASKATCHEWAN AND ONTARIO ***
                ***ONTARIO***

CITY           SKY/WX    TMP DP  RH WIND       PRES   REMARKS
GERALDTON      FLURRIES  10   9  92 SW6       29.72S WCI   1
THUNDER BAY    CLEAR      9   7  92 W3        29.83S
SIOUX LOOKOUT  MOCLDY    -4  -8  84 SE2       29.73S
TORONTO        CLOUDY    30  23  74 W5        29.85R
BIG TROUT LK   CLOUDY     9   3  78 W10       29.64S WCI  -6
PICKLE LAKE    NOT AVBL
DRYDEN         CLOUDY    12   9  85 S6        29.71F WCI   3
KENORA         MOCLDY    14  12  92 S5        29.69F WCI   6
$$
                *** MANITOBA***

CITY           SKY/WX    TMP DP  RH WIND       PRES   REMARKS
BRANDON        CLOUDY    12   9  85 E7        29.54F WCI   2
DAUPHIN        MOCLDY    14  10  85 CALM      29.54F
ISLAND LAKE    FLURRIES   9   5  85 W5        29.67F WCI   0
PILOT MOUND      N/A     19  18  93 SE9         N/A  WCI   9
THE PAS        LGT SNOW   9   5  85 E8        29.58F WCI  -4
THOMPSON       CLOUDY     1  -4  78 VRB2      29.66S
WINNIPEG       CLOUDY    16  10  79 SE6       29.67F WCI   7
LYNN LAKE      CLOUDY    -8  -9  92 VRB2      29.59F
CHURCHILL      FLURRIES  18  16  93 NW13      29.55R WCI   4
GILLAM         CLOUDY     1  -4  78 W10G18    29.63  WCI -14
$$
                ***SASKATCHEWAN***

CITY           SKY/WX    TMP DP  RH WIND       PRES   REMARKS
ESTEVAN        MOCLDY    30  21  69 SW13G20   29.46F WCI  20
KINDERSLEY     CLOUDY    36  28  75 W29G35    29.23S
LLOYDMINSTER   CLOUDY     9   7  92 E5        29.18S WCI   0
PRINCE ALBERT  CLOUDY    16  10  79 E15       29.34F WCI   1
REGINA         CLOUDY    28  21  74 S8        29.36F WCI  20
YORKTON        MOCLDY    19  18  93 SE14      29.40F W



USA.gov is the U.S. government's official web portal to all federal, state and local government web resources and services.